ZHUHAI-1 02 (CAS 4B) (42759 NORAD) Tracking and Keplerian Element Data

This shows tracking and keplerian element data for the satellite.

Feedback or suggestion? Click here.




ElementValue
Catalog42759
NameZHUHAI-1 02 (CAS 4B)
Epoch Orbit10183
Epoch Day110.11534536
Epoch Year2019
RAAN197.9761
Inclination43.0181
Eccentricity0.0011495
Argument of Perigee242.4405
Mean Anonmoly187.6149
Mean Motion15.09542428
Decay Rate2.41E-06
L11 42759U 17034B 19110.11534536 .00000241 00000-0 28303-4 0 9999
L22 42759 43.0181 197.9761 0011495 242.4405 187.6149 15.09542428101836

Live tracking and technical data element details for ZHUHAI-1 02 (CAS 4B) (NORAD 42759). ZHUHAI-1 02 (CAS 4B) can be tracked NOW for your location showing map with azimuth and elevation plus other details from your city location.

Track the satellite on the map from your city or location and see movement details for azimuth, elevation, latitude, longitude, range, height, and movement on the map or in text.







IsCatalogInMostPopularTable: catalog: 42759, numindb: 283
Update: records affected: 1



GetName: 42759 ZHUHAI-1 02 (CAS 4B)

Hit Count: updated at: Sat, 20 Apr 2019 20:09:54 GMT